owner,sensor,date,latitude,longitude,vertical_datum,sea_water_temperature,qcFlag 
TABS,ioos:station:wmo:42044:1,2000-02-04T00:00:00Z,26.1914,-97.0507,-2.0,15.89,11111222 
TABS,ioos:station:wmo:42044:1,2000-02-05T00:00:00Z,26.1914,-97.0507,-2.0,15.89,11111222 
TABS,ioos:station:wmo:42044:1,2000-02-06T00:00:00Z,26.1914,-97.0507,-2.0,15.89,11111222 
TABS,ioos:station:wmo:42044:1,2000-02-07T00:00:00Z,26.1914,-97.0507,-2.0,15.89,11111222 
TABS,ioos:station:wmo:42044:1,2000-02-07T15:00:00Z,26.1914,-97.0507,-2.0,15.19,11111222 
TABS,ioos:station:wmo:42044:1,2000-02-07T15:30:00Z,26.1914,-97.0507,-2.0,14.94,11111222 
TABS,ioos:station:wmo:42044:1,2000-02-07T16:00:00Z,26.1914,-97.0507,-2.0,14.8,11111222 
TABS,ioos:station:wmo:42044:1,2000-02-07T16:30:00Z,26.1914,-97.0507,-2.0,14.72,11111222 
TABS,ioos:station:wmo:42044:1,2000-02-07T17:00:00Z,26.1914,-97.0507,-2.0,14.67,11111222 
TABS,ioos:station:wmo:42044:1,2000-02-07T17:30:00Z,26.1914,-97.0507,-2.0,14.65,11111222 
TABS,ioos:station:wmo:42044:1,2000-02-07T18:00:00Z,26.1914,-97.0507,-2.0,14.75,11111222 
TABS,ioos:station:wmo:42044:1,2000-02-07T18:30:00Z,26.1914,-97.0507,-2.0,14.87,11111222 
TABS,ioos:station:wmo:42044:1,2000-02-07T19:00:00Z,26.1914,-97.0507,-2.0,15.01,11111222 
TABS,ioos:station:wmo:42044:1,2000-02-07T19:30:00Z,26.1914,-97.0507,-2.0,15.11,11111222 
TABS,ioos:station:wmo:42044:1,2000-02-07T20:00:00Z,26.1914,-97.0507,-2.0,15.01,11111222 
TABS,ioos:station:wmo:42044:1,2000-02-07T20:30:00Z,26.1914,-97.0507,-2.0,15.1,11111222 
TABS,ioos:station:wmo:42044:1,2000-02-07T21:00:00Z,26.1914,-97.0507,-2.0,15.35,11111222 
TABS,ioos:station:wmo:42044:1,2000-02-07T21:30:00Z,26.1914,-97.0507,-2.0,15.37,11111222 
TABS,ioos:station:wmo:42044:1,2000-02-07T22:00:00Z,26.1914,-97.0507,-2.0,15.34,11111222 
TABS,ioos:station:wmo:42044:1,2000-02-07T22:30:00Z,26.1914,-97.0507,-2.0,15.34,11111222 
TABS,ioos:station:wmo:42044:1,2000-02-07T23:00:00Z,26.1914,-97.0507,-2.0,15.54,11111222 
TABS,ioos:station:wmo:42044:1,2000-02-07T23:30:00Z,26.1914,-97.0507,-2.0,15.6,11111222 
TABS,ioos:station:wmo:42044:1,2000-02-08T00:00:00Z,26.1914,-97.0507,-2.0,15.66,11111222 
TABS,ioos:station:wmo:42044:1,2000-02-08T00:30:00Z,26.1914,-97.0507,-2.0,15.71,11111222 
TABS,ioos:station:wmo:42044:1,2000-02-08T01:00:00Z,26.1914,-97.0507,-2.0,15.8,11111222 
TABS,ioos:station:wmo:42044:1,2000-02-08T01:30:00Z,26.1914,-97.0507,-2.0,15.84,11111222 
TABS,ioos:station:wmo:42044:1,2000-02-08T02:00:00Z,26.1914,-97.0507,-2.0,15.89,11111222 
TABS,ioos:station:wmo:42044:1,2000-02-08T02:30:00Z,26.1914,-97.0507,-2.0,15.94,11111222 
TABS,ioos:station:wmo:42044:1,2000-02-08T03:00:00Z,26.1914,-97.0507,-2.0,16.01,11111222 
TABS,ioos:station:wmo:42044:1,2000-02-08T03:30:00Z,26.1914,-97.0507,-2.0,16.1,11111222 
TABS,ioos:station:wmo:42044:1,2000-02-08T04:00:00Z,26.1914,-97.0507,-2.0,16.12,11111222 
TABS,ioos:station:wmo:42044:1,2000-02-08T04:30:00Z,26.1914,-97.0507,-2.0,16.26,11111222 
TABS,ioos:station:wmo:42044:1,2000-02-08T05:00:00Z,26.1914,-97.0507,-2.0,16.28,11111222 
TABS,ioos:station:wmo:42044:1,2000-02-08T05:30:00Z,26.1914,-97.0507,-2.0,16.12,11111222 
TABS,ioos:station:wmo:42044:1,2000-02-08T06:00:00Z,26.1914,-97.0507,-2.0,15.93,11111222 
TABS,ioos:station:wmo:42044:1,2000-02-08T06:30:00Z,26.1914,-97.0507,-2.0,15.94,11111222 
TABS,ioos:station:wmo:42044:1,2000-02-08T07:00:00Z,26.1914,-97.0507,-2.0,15.26,11111222 
TABS,ioos:station:wmo:42044:1,2000-02-08T07:30:00Z,26.1914,-97.0507,-2.0,15.26,11111222 
TABS,ioos:station:wmo:42044:1,2000-02-08T08:00:00Z,26.1914,-97.0507,-2.0,15.25,11111222 
TABS,ioos:station:wmo:42044:1,2000-02-08T08:30:00Z,26.1914,-97.0507,-2.0,15.12,11111222 
TABS,ioos:station:wmo:42044:1,2000-02-08T09:00:00Z,26.1914,-97.0507,-2.0,15.02,11111222 
TABS,ioos:station:wmo:42044:1,2000-02-08T09:30:00Z,26.1914,-97.0507,-2.0,15.05,11111222 
TABS,ioos:station:wmo:42044:1,2000-02-08T10:00:00Z,26.1914,-97.0507,-2.0,15.09,11111222 
TABS,ioos:station:wmo:42044:1,2000-02-08T10:30:00Z,26.1914,-97.0507,-2.0,15.02,11111222 
TABS,ioos:station:wmo:42044:1,2000-02-08T11:00:00Z,26.1914,-97.0507,-2.0,14.91,11111222 
TABS,ioos:station:wmo:42044:1,2000-02-08T11:30:00Z,26.1914,-97.0507,-2.0,14.91,11111222 
TABS,ioos:station:wmo:42044:1,2000-02-08T12:00:00Z,26.1914,-97.0507,-2.0,14.92,11111222 
TABS,ioos:station:wmo:42044:1,2000-02-08T12:30:00Z,26.1914,-97.0507,-2.0,14.92,11111222 
TABS,ioos:station:wmo:42044:1,2000-02-08T13:00:00Z,26.1914,-97.0507,-2.0,14.97,11111222 
TABS,ioos:station:wmo:42044:1,2000-02-08T13:30:00Z,26.1914,-97.0507,-2.0,14.95,11111222 
TABS,ioos:station:wmo:42044:1,2000-02-08T14:00:00Z,26.1914,-97.0507,-2.0,14.92,11111222 
TABS,ioos:station:wmo:42044:1,2000-02-08T14:30:00Z,26.1914,-97.0507,-2.0,14.92,11111222 
TABS,ioos:station:wmo:42044:1,2000-02-08T15:00:00Z,26.1914,-97.0507,-2.0,14.91,11111222 
TABS,ioos:station:wmo:42044:1,2000-02-08T15:30:00Z,26.1914,-97.0507,-2.0,14.97,11111222 
TABS,ioos:station:wmo:42044:1,2000-02-08T16:00:00Z,26.1914,-97.0507,-2.0,14.99,11111222 
TABS,ioos:station:wmo:42044:1,2000-02-08T16:30:00Z,26.1914,-97.0507,-2.0,15.05,11111222 
TABS,ioos:station:wmo:42044:1,2000-02-08T17:00:00Z,26.1914,-97.0507,-2.0,15.14,11111222 
TABS,ioos:station:wmo:42044:1,2000-02-08T17:30:00Z,26.1914,-97.0507,-2.0,15.21,11111222 
TABS,ioos:station:wmo:42044:1,2000-02-08T18:00:00Z,26.1914,-97.0507,-2.0,15.16,11111222 
TABS,ioos:station:wmo:42044:1,2000-02-08T18:30:00Z,26.1914,-97.0507,-2.0,15.19,11111222 
TABS,ioos:station:wmo:42044:1,2000-02-08T19:00:00Z,26.1914,-97.0507,-2.0,15.29,11111222 
TABS,ioos:station:wmo:42044:1,2000-02-08T19:30:00Z,26.1914,-97.0507,-2.0,15.42,11111222 
TABS,ioos:station:wmo:42044:1,2000-02-08T20:00:00Z,26.1914,-97.0507,-2.0,15.46,11111222 
TABS,ioos:station:wmo:42044:1,2000-02-08T20:30:00Z,26.1914,-97.0507,-2.0,15.56,11111222 
TABS,ioos:station:wmo:42044:1,2000-02-08T21:00:00Z,26.1914,-97.0507,-2.0,15.61,11111222 
TABS,ioos:station:wmo:42044:1,2000-02-08T21:30:00Z,26.1914,-97.0507,-2.0,15.63,11111222 
TABS,ioos:station:wmo:42044:1,2000-02-08T22:00:00Z,26.1914,-97.0507,-2.0,15.65,11111222 
TABS,ioos:station:wmo:42044:1,2000-02-08T22:30:00Z,26.1914,-97.0507,-2.0,15.65,11111222 
TABS,ioos:station:wmo:42044:1,2000-02-08T23:00:00Z,26.1914,-97.0507,-2.0,15.59,11111222 
TABS,ioos:station:wmo:42044:1,2000-02-08T23:30:00Z,26.1914,-97.0507,-2.0,15.61,11111222 
TABS,ioos:station:wmo:42044:1,2000-02-09T00:00:00Z,26.1914,-97.0507,-2.0,15.81,11111222 
TABS,ioos:station:wmo:42044:1,2000-02-09T00:30:00Z,26.1914,-97.0507,-2.0,16.27,11111222 
TABS,ioos:station:wmo:42044:1,2000-02-09T01:00:00Z,26.1914,-97.0507,-2.0,16.56,11111222 
TABS,ioos:station:wmo:42044:1,2000-02-09T01:30:00Z,26.1914,-97.0507,-2.0,16.53,11111222 
TABS,ioos:station:wmo:42044:1,2000-02-09T02:00:00Z,26.1914,-97.0507,-2.0,16.44,11111222 
TABS,ioos:station:wmo:42044:1,2000-02-09T02:30:00Z,26.1914,-97.0507,-2.0,16.31,11111222 
TABS,ioos:station:wmo:42044:1,2000-02-09T03:00:00Z,26.1914,-97.0507,-2.0,16.3,11111222 
TABS,ioos:station:wmo:42044:1,2000-02-09T03:30:00Z,26.1914,-97.0507,-2.0,16.13,11111222 
TABS,ioos:station:wmo:42044:1,2000-02-09T04:00:00Z,26.1914,-97.0507,-2.0,16.4,11111222 
TABS,ioos:station:wmo:42044:1,2000-02-09T04:30:00Z,26.1914,-97.0507,-2.0,16.49,11111222 
TABS,ioos:station:wmo:42044:1,2000-02-09T05:00:00Z,26.1914,-97.0507,-2.0,16.44,11111222 
TABS,ioos:station:wmo:42044:1,2000-02-09T05:30:00Z,26.1914,-97.0507,-2.0,16.19,11111222 
TABS,ioos:station:wmo:42044:1,2000-02-09T06:00:00Z,26.1914,-97.0507,-2.0,16.17,11111222 
TABS,ioos:station:wmo:42044:1,2000-02-09T06:30:00Z,26.1914,-97.0507,-2.0,16.03,11111222 
TABS,ioos:station:wmo:42044:1,2000-02-09T07:00:00Z,26.1914,-97.0507,-2.0,16.36,11111222 
TABS,ioos:station:wmo:42044:1,2000-02-09T07:30:00Z,26.1914,-97.0507,-2.0,16.41,11111222 
TABS,ioos:station:wmo:42044:1,2000-02-09T08:00:00Z,26.1914,-97.0507,-2.0,16.36,11111222 
TABS,ioos:station:wmo:42044:1,2000-02-09T08:30:00Z,26.1914,-97.0507,-2.0,16.25,11111222 
TABS,ioos:station:wmo:42044:1,2000-02-09T09:00:00Z,26.1914,-97.0507,-2.0,16.2,11111222 
TABS,ioos:station:wmo:42044:1,2000-02-09T09:30:00Z,26.1914,-97.0507,-2.0,16.14,11111222 
TABS,ioos:station:wmo:42044:1,2000-02-09T10:00:00Z,26.1914,-97.0507,-2.0,16.09,11111222 
TABS,ioos:station:wmo:42044:1,2000-02-09T10:30:00Z,26.1914,-97.0507,-2.0,15.93,11111222 
TABS,ioos:station:wmo:42044:1,2000-02-09T11:00:00Z,26.1914,-97.0507,-2.0,15.76,11111222 
TABS,ioos:station:wmo:42044:1,2000-02-09T11:30:00Z,26.1914,-97.0507,-2.0,15.69,11111222 
TABS,ioos:station:wmo:42044:1,2000-02-09T12:00:00Z,26.1914,-97.0507,-2.0,15.58,11111222 
TABS,ioos:station:wmo:42044:1,2000-02-09T12:30:00Z,26.1914,-97.0507,-2.0,15.58,11111222 
TABS,ioos:station:wmo:42044:1,2000-02-09T13:00:00Z,26.1914,-97.0507,-2.0,15.62,11111222 
TABS,ioos:station:wmo:42044:1,2000-02-09T13:30:00Z,26.1914,-97.0507,-2.0,15.65,11111222 
TABS,ioos:station:wmo:42044:1,2000-02-09T14:00:00Z,26.1914,-97.0507,-2.0,15.65,11111222 
TABS,ioos:station:wmo:42044:1,2000-02-09T14:30:00Z,26.1914,-97.0507,-2.0,15.61,11111222 
TABS,ioos:station:wmo:42044:1,2000-02-09T15:00:00Z,26.1914,-97.0507,-2.0,15.67,11111222 
TABS,ioos:station:wmo:42044:1,2000-02-09T15:30:00Z,26.1914,-97.0507,-2.0,15.71,11111222 
TABS,ioos:station:wmo:42044:1,2000-02-09T16:00:00Z,26.1914,-97.0507,-2.0,15.77,11111222 
TABS,ioos:station:wmo:42044:1,2000-02-09T16:30:00Z,26.1914,-97.0507,-2.0,15.78,11111222 
TABS,ioos:station:wmo:42044:1,2000-02-09T17:00:00Z,26.1914,-97.0507,-2.0,15.88,11111222 
TABS,ioos:station:wmo:42044:1,2000-02-09T17:30:00Z,26.1914,-97.0507,-2.0,16.03,11111222 
TABS,ioos:station:wmo:42044:1,2000-02-09T18:00:00Z,26.1914,-97.0507,-2.0,16.13,11111222 
TABS,ioos:station:wmo:42044:1,2000-02-09T18:30:00Z,26.1914,-97.0507,-2.0,16.09,11111222 
TABS,ioos:station:wmo:42044:1,2000-02-09T19:00:00Z,26.1914,-97.0507,-2.0,16.38,11111222 
TABS,ioos:station:wmo:42044:1,2000-02-09T19:30:00Z,26.1914,-97.0507,-2.0,16.57,11111222 
TABS,ioos:station:wmo:42044:1,2000-02-09T20:00:00Z,26.1914,-97.0507,-2.0,16.56,11111222 
TABS,ioos:station:wmo:42044:1,2000-02-09T20:30:00Z,26.1914,-97.0507,-2.0,16.76,11111222 
TABS,ioos:station:wmo:42044:1,2000-02-09T21:00:00Z,26.1914,-97.0507,-2.0,16.84,11111222 
TABS,ioos:station:wmo:42044:1,2000-02-09T21:30:00Z,26.1914,-97.0507,-2.0,16.88,11111222 
TABS,ioos:station:wmo:42044:1,2000-02-09T22:00:00Z,26.1914,-97.0507,-2.0,16.92,11111222 
TABS,ioos:station:wmo:42044:1,2000-02-09T22:30:00Z,26.1914,-97.0507,-2.0,16.86,11111222 
TABS,ioos:station:wmo:42044:1,2000-02-09T23:00:00Z,26.1914,-97.0507,-2.0,16.81,11111222 
TABS,ioos:station:wmo:42044:1,2000-02-09T23:30:00Z,26.1914,-97.0507,-2.0,16.67,11111222 
TABS,ioos:station:wmo:42044:1,2000-02-10T00:00:00Z,26.1914,-97.0507,-2.0,16.61,11111222 
TABS,ioos:station:wmo:42044:1,2000-02-10T00:30:00Z,26.1914,-97.0507,-2.0,16.6,11111222 
TABS,ioos:station:wmo:42044:1,2000-02-10T01:00:00Z,26.1914,-97.0507,-2.0,16.56,11111222 
TABS,ioos:station:wmo:42044:1,2000-02-10T01:30:00Z,26.1914,-97.0507,-2.0,16.57,11111222 
TABS,ioos:station:wmo:42044:1,2000-02-10T02:00:00Z,26.1914,-97.0507,-2.0,16.54,11111222 
TABS,ioos:station:wmo:42044:1,2000-02-10T02:30:00Z,26.1914,-97.0507,-2.0,16.48,11111222 
TABS,ioos:station:wmo:42044:1,2000-02-10T03:00:00Z,26.1914,-97.0507,-2.0,16.42,11111222 
TABS,ioos:station:wmo:42044:1,2000-02-10T03:30:00Z,26.1914,-97.0507,-2.0,16.37,11111222 
TABS,ioos:station:wmo:42044:1,2000-02-10T04:00:00Z,26.1914,-97.0507,-2.0,16.33,11111222 
TABS,ioos:station:wmo:42044:1,2000-02-10T04:30:00Z,26.1914,-97.0507,-2.0,16.28,11111222 
TABS,ioos:station:wmo:42044:1,2000-02-10T05:00:00Z,26.1914,-97.0507,-2.0,16.24,11111222 
TABS,ioos:station:wmo:42044:1,2000-02-10T05:30:00Z,26.1914,-97.0507,-2.0,16.22,11111222 
TABS,ioos:station:wmo:42044:1,2000-02-10T06:00:00Z,26.1914,-97.0507,-2.0,16.15,11111222 
TABS,ioos:station:wmo:42044:1,2000-02-10T06:30:00Z,26.1914,-97.0507,-2.0,16.08,11111222 
TABS,ioos:station:wmo:42044:1,2000-02-10T07:00:00Z,26.1914,-97.0507,-2.0,15.95,11111222 
TABS,ioos:station:wmo:42044:1,2000-02-10T07:30:00Z,26.1914,-97.0507,-2.0,16.0,11111222 
TABS,ioos:station:wmo:42044:1,2000-02-10T08:00:00Z,26.1914,-97.0507,-2.0,16.01,11111222 
TABS,ioos:station:wmo:42044:1,2000-02-10T08:30:00Z,26.1914,-97.0507,-2.0,15.97,11111222 
TABS,ioos:station:wmo:42044:1,2000-02-10T09:00:00Z,26.1914,-97.0507,-2.0,15.92,11111222 
TABS,ioos:station:wmo:42044:1,2000-02-10T09:30:00Z,26.1914,-97.0507,-2.0,15.85,11111222 
TABS,ioos:station:wmo:42044:1,2000-02-10T10:00:00Z,26.1914,-97.0507,-2.0,15.93,11111222 
TABS,ioos:station:wmo:42044:1,2000-02-10T10:30:00Z,26.1914,-97.0507,-2.0,15.91,11111222 
TABS,ioos:station:wmo:42044:1,2000-02-10T11:00:00Z,26.1914,-97.0507,-2.0,15.89,11111222 
TABS,ioos:station:wmo:42044:1,2000-02-10T11:30:00Z,26.1914,-97.0507,-2.0,15.96,11111222 
TABS,ioos:station:wmo:42044:1,2000-02-10T12:00:00Z,26.1914,-97.0507,-2.0,16.01,11111222 
TABS,ioos:station:wmo:42044:1,2000-02-10T12:30:00Z,26.1914,-97.0507,-2.0,16.01,11111222 
TABS,ioos:station:wmo:42044:1,2000-02-10T13:00:00Z,26.1914,-97.0507,-2.0,16.05,11111222 
TABS,ioos:station:wmo:42044:1,2000-02-10T13:30:00Z,26.1914,-97.0507,-2.0,16.04,11111222 
TABS,ioos:station:wmo:42044:1,2000-02-10T14:00:00Z,26.1914,-97.0507,-2.0,16.02,11111222 
TABS,ioos:station:wmo:42044:1,2000-02-10T14:30:00Z,26.1914,-97.0507,-2.0,15.97,11111222 
TABS,ioos:station:wmo:42044:1,2000-02-10T15:00:00Z,26.1914,-97.0507,-2.0,15.92,11111222 
TABS,ioos:station:wmo:42044:1,2000-02-10T15:30:00Z,26.1914,-97.0507,-2.0,15.87,11111222 
TABS,ioos:station:wmo:42044:1,2000-02-10T16:00:00Z,26.1914,-97.0507,-2.0,15.85,11111222 
TABS,ioos:station:wmo:42044:1,2000-02-10T16:30:00Z,26.1914,-97.0507,-2.0,15.89,11111222 
TABS,ioos:station:wmo:42044:1,2000-02-10T17:00:00Z,26.1914,-97.0507,-2.0,15.92,11111222 
TABS,ioos:station:wmo:42044:1,2000-02-10T17:30:00Z,26.1914,-97.0507,-2.0,15.99,11111222 
TABS,ioos:station:wmo:42044:1,2000-02-10T18:00:00Z,26.1914,-97.0507,-2.0,16.05,11111222 
TABS,ioos:station:wmo:42044:1,2000-02-10T18:30:00Z,26.1914,-97.0507,-2.0,16.1,11111222 
TABS,ioos:station:wmo:42044:1,2000-02-10T19:00:00Z,26.1914,-97.0507,-2.0,16.13,11111222 
TABS,ioos:station:wmo:42044:1,2000-02-10T19:30:00Z,26.1914,-97.0507,-2.0,16.18,11111222 
TABS,ioos:station:wmo:42044:1,2000-02-10T20:00:00Z,26.1914,-97.0507,-2.0,16.19,11111222 
TABS,ioos:station:wmo:42044:1,2000-02-10T20:30:00Z,26.1914,-97.0507,-2.0,16.24,11111222 
TABS,ioos:station:wmo:42044:1,2000-02-10T21:00:00Z,26.1914,-97.0507,-2.0,16.37,11111222 
TABS,ioos:station:wmo:42044:1,2000-02-10T21:30:00Z,26.1914,-97.0507,-2.0,16.4,11111222 
TABS,ioos:station:wmo:42044:1,2000-02-10T22:00:00Z,26.1914,-97.0507,-2.0,16.33,11111222 
TABS,ioos:station:wmo:42044:1,2000-02-10T22:30:00Z,26.1914,-97.0507,-2.0,16.43,11111222 
TABS,ioos:station:wmo:42044:1,2000-02-10T23:00:00Z,26.1914,-97.0507,-2.0,16.34,11111222 
TABS,ioos:station:wmo:42044:1,2000-02-10T23:30:00Z,26.1914,-97.0507,-2.0,16.36,11111222 
TABS,ioos:station:wmo:42044:1,2000-02-11T00:00:00Z,26.1914,-97.0507,-2.0,16.28,11111222 
TABS,ioos:station:wmo:42044:1,2000-02-11T00:30:00Z,26.1914,-97.0507,-2.0,16.28,11111222 
TABS,ioos:station:wmo:42044:1,2000-02-11T01:00:00Z,26.1914,-97.0507,-2.0,16.28,11111222 
TABS,ioos:station:wmo:42044:1,2000-02-11T01:30:00Z,26.1914,-97.0507,-2.0,16.27,11111222 
TABS,ioos:station:wmo:42044:1,2000-02-11T02:00:00Z,26.1914,-97.0507,-2.0,16.26,11111222 
TABS,ioos:station:wmo:42044:1,2000-02-11T02:30:00Z,26.1914,-97.0507,-2.0,16.24,11111222 
TABS,ioos:station:wmo:42044:1,2000-02-11T03:00:00Z,26.1914,-97.0507,-2.0,16.26,11111222 
TABS,ioos:station:wmo:42044:1,2000-02-11T03:30:00Z,26.1914,-97.0507,-2.0,16.2,11111222 
TABS,ioos:station:wmo:42044:1,2000-02-11T04:00:00Z,26.1914,-97.0507,-2.0,16.22,11111222 
TABS,ioos:station:wmo:42044:1,2000-02-11T04:30:00Z,26.1914,-97.0507,-2.0,16.2,11111222 
TABS,ioos:station:wmo:42044:1,2000-02-11T05:00:00Z,26.1914,-97.0507,-2.0,16.2,11111222 
TABS,ioos:station:wmo:42044:1,2000-02-11T05:30:00Z,26.1914,-97.0507,-2.0,16.21,11111222 
TABS,ioos:station:wmo:42044:1,2000-02-11T06:00:00Z,26.1914,-97.0507,-2.0,16.22,11111222 
TABS,ioos:station:wmo:42044:1,2000-02-11T06:30:00Z,26.1914,-97.0507,-2.0,16.24,11111222 
TABS,ioos:station:wmo:42044:1,2000-02-11T07:00:00Z,26.1914,-97.0507,-2.0,16.25,11111222 
TABS,ioos:station:wmo:42044:1,2000-02-11T07:30:00Z,26.1914,-97.0507,-2.0,16.26,11111222 
TABS,ioos:station:wmo:42044:1,2000-02-11T08:00:00Z,26.1914,-97.0507,-2.0,16.27,11111222 
TABS,ioos:station:wmo:42044:1,2000-02-11T08:30:00Z,26.1914,-97.0507,-2.0,16.29,11111222 
TABS,ioos:station:wmo:42044:1,2000-02-11T09:00:00Z,26.1914,-97.0507,-2.0,16.29,11111222 
TABS,ioos:station:wmo:42044:1,2000-02-11T09:30:00Z,26.1914,-97.0507,-2.0,16.3,11111222 
TABS,ioos:station:wmo:42044:1,2000-02-11T10:00:00Z,26.1914,-97.0507,-2.0,16.32,11111222 
TABS,ioos:station:wmo:42044:1,2000-02-11T10:30:00Z,26.1914,-97.0507,-2.0,16.32,11111222 
TABS,ioos:station:wmo:42044:1,2000-02-11T11:00:00Z,26.1914,-97.0507,-2.0,16.34,11111222 
TABS,ioos:station:wmo:42044:1,2000-02-11T11:30:00Z,26.1914,-97.0507,-2.0,16.34,11111222 
TABS,ioos:station:wmo:42044:1,2000-02-11T12:00:00Z,26.1914,-97.0507,-2.0,16.35,11111222 
TABS,ioos:station:wmo:42044:1,2000-02-11T12:30:00Z,26.1914,-97.0507,-2.0,16.33,11111222 
TABS,ioos:station:wmo:42044:1,2000-02-11T13:00:00Z,26.1914,-97.0507,-2.0,16.32,11111222 
TABS,ioos:station:wmo:42044:1,2000-02-11T13:30:00Z,26.1914,-97.0507,-2.0,16.28,11111222 
TABS,ioos:station:wmo:42044:1,2000-02-11T14:00:00Z,26.1914,-97.0507,-2.0,16.28,11111222 
TABS,ioos:station:wmo:42044:1,2000-02-11T14:30:00Z,26.1914,-97.0507,-2.0,16.26,11111222 
TABS,ioos:station:wmo:42044:1,2000-02-11T15:00:00Z,26.1914,-97.0507,-2.0,16.27,11111222 
TABS,ioos:station:wmo:42044:1,2000-02-11T15:30:00Z,26.1914,-97.0507,-2.0,16.29,11111222 
TABS,ioos:station:wmo:42044:1,2000-02-11T16:00:00Z,26.1914,-97.0507,-2.0,16.35,11111222 
TABS,ioos:station:wmo:42044:1,2000-02-11T16:30:00Z,26.1914,-97.0507,-2.0,16.41,11111222 
TABS,ioos:station:wmo:42044:1,2000-02-11T17:00:00Z,26.1914,-97.0507,-2.0,16.45,11111222 
TABS,ioos:station:wmo:42044:1,2000-02-11T17:30:00Z,26.1914,-97.0507,-2.0,16.51,11111222 
TABS,ioos:station:wmo:42044:1,2000-02-11T18:00:00Z,26.1914,-97.0507,-2.0,16.59,11111222 
TABS,ioos:station:wmo:42044:1,2000-02-11T18:30:00Z,26.1914,-97.0507,-2.0,16.65,11111222 
TABS,ioos:station:wmo:42044:1,2000-02-11T19:00:00Z,26.1914,-97.0507,-2.0,16.71,11111222 
TABS,ioos:station:wmo:42044:1,2000-02-11T19:30:00Z,26.1914,-97.0507,-2.0,16.9,11111222 
TABS,ioos:station:wmo:42044:1,2000-02-11T20:00:00Z,26.1914,-97.0507,-2.0,16.96,11111222 
TABS,ioos:station:wmo:42044:1,2000-02-11T20:30:00Z,26.1914,-97.0507,-2.0,17.11,11111222 
TABS,ioos:station:wmo:42044:1,2000-02-11T21:00:00Z,26.1914,-97.0507,-2.0,17.2,11111222 
TABS,ioos:station:wmo:42044:1,2000-02-11T21:30:00Z,26.1914,-97.0507,-2.0,17.32,11111222 
TABS,ioos:station:wmo:42044:1,2000-02-11T22:00:00Z,26.1914,-97.0507,-2.0,17.46,11111222 
TABS,ioos:station:wmo:42044:1,2000-02-11T22:30:00Z,26.1914,-97.0507,-2.0,17.42,11111222 
TABS,ioos:station:wmo:42044:1,2000-02-11T23:00:00Z,26.1914,-97.0507,-2.0,17.36,11111222 
TABS,ioos:station:wmo:42044:1,2000-02-11T23:30:00Z,26.1914,-97.0507,-2.0,17.41,11111222 
TABS,ioos:station:wmo:42044:1,2000-02-12T00:00:00Z,26.1914,-97.0507,-2.0,17.33,11111222 
TABS,ioos:station:wmo:42044:1,2000-02-12T00:30:00Z,26.1914,-97.0507,-2.0,17.43,11111222 
TABS,ioos:station:wmo:42044:1,2000-02-12T01:00:00Z,26.1914,-97.0507,-2.0,17.41,11111222 
TABS,ioos:station:wmo:42044:1,2000-02-12T01:30:00Z,26.1914,-97.0507,-2.0,17.41,11111222 
TABS,ioos:station:wmo:42044:1,2000-02-12T02:00:00Z,26.1914,-97.0507,-2.0,17.19,11111222 
TABS,ioos:station:wmo:42044:1,2000-02-12T02:30:00Z,26.1914,-97.0507,-2.0,17.38,11111222 
TABS,ioos:station:wmo:42044:1,2000-02-12T03:00:00Z,26.1914,-97.0507,-2.0,17.35,11111222 
TABS,ioos:station:wmo:42044:1,2000-02-12T03:30:00Z,26.1914,-97.0507,-2.0,17.29,11111222 
TABS,ioos:station:wmo:42044:1,2000-02-12T04:00:00Z,26.1914,-97.0507,-2.0,17.26,11111222 
TABS,ioos:station:wmo:42044:1,2000-02-12T04:30:00Z,26.1914,-97.0507,-2.0,17.25,11111222 
TABS,ioos:station:wmo:42044:1,2000-02-12T05:00:00Z,26.1914,-97.0507,-2.0,17.26,11111222 
TABS,ioos:station:wmo:42044:1,2000-02-12T05:30:00Z,26.1914,-97.0507,-2.0,17.24,11111222 
TABS,ioos:station:wmo:42044:1,2000-02-12T06:00:00Z,26.1914,-97.0507,-2.0,17.28,11111222 
TABS,ioos:station:wmo:42044:1,2000-02-12T06:30:00Z,26.1914,-97.0507,-2.0,17.29,11111222 
TABS,ioos:station:wmo:42044:1,2000-02-12T07:00:00Z,26.1914,-97.0507,-2.0,17.32,11111222 
TABS,ioos:station:wmo:42044:1,2000-02-12T07:30:00Z,26.1914,-97.0507,-2.0,17.29,11111222 
TABS,ioos:station:wmo:42044:1,2000-02-12T08:00:00Z,26.1914,-97.0507,-2.0,17.29,11111222 
TABS,ioos:station:wmo:42044:1,2000-02-12T08:30:00Z,26.1914,-97.0507,-2.0,17.25,11111222 
TABS,ioos:station:wmo:42044:1,2000-02-12T09:00:00Z,26.1914,-97.0507,-2.0,17.24,11111222 
TABS,ioos:station:wmo:42044:1,2000-02-12T09:30:00Z,26.1914,-97.0507,-2.0,17.22,11111222 
TABS,ioos:station:wmo:42044:1,2000-02-12T10:00:00Z,26.1914,-97.0507,-2.0,17.2,11111222 
TABS,ioos:station:wmo:42044:1,2000-02-12T10:30:00Z,26.1914,-97.0507,-2.0,17.18,11111222 
TABS,ioos:station:wmo:42044:1,2000-02-12T11:00:00Z,26.1914,-97.0507,-2.0,17.13,11111222 
TABS,ioos:station:wmo:42044:1,2000-02-12T11:30:00Z,26.1914,-97.0507,-2.0,17.1,11111222 
TABS,ioos:station:wmo:42044:1,2000-02-12T12:00:00Z,26.1914,-97.0507,-2.0,17.09,11111222 
TABS,ioos:station:wmo:42044:1,2000-02-12T12:30:00Z,26.1914,-97.0507,-2.0,17.1,11111222 
TABS,ioos:station:wmo:42044:1,2000-02-12T13:00:00Z,26.1914,-97.0507,-2.0,17.1,11111222 
TABS,ioos:station:wmo:42044:1,2000-02-12T13:30:00Z,26.1914,-97.0507,-2.0,17.1,11111222 
TABS,ioos:station:wmo:42044:1,2000-02-12T14:00:00Z,26.1914,-97.0507,-2.0,17.12,11111222 
TABS,ioos:station:wmo:42044:1,2000-02-12T14:30:00Z,26.1914,-97.0507,-2.0,17.14,11111222 
TABS,ioos:station:wmo:42044:1,2000-02-12T15:00:00Z,26.1914,-97.0507,-2.0,17.19,11111222 
TABS,ioos:station:wmo:42044:1,2000-02-12T15:30:00Z,26.1914,-97.0507,-2.0,17.21,11111222 
TABS,ioos:station:wmo:42044:1,2000-02-12T16:00:00Z,26.1914,-97.0507,-2.0,17.28,11111222 
TABS,ioos:station:wmo:42044:1,2000-02-12T16:30:00Z,26.1914,-97.0507,-2.0,17.36,11111222 
TABS,ioos:station:wmo:42044:1,2000-02-12T17:00:00Z,26.1914,-97.0507,-2.0,17.43,11111222 
TABS,ioos:station:wmo:42044:1,2000-02-12T17:30:00Z,26.1914,-97.0507,-2.0,17.5,11111222 
TABS,ioos:station:wmo:42044:1,2000-02-12T18:00:00Z,26.1914,-97.0507,-2.0,17.59,11111222 
TABS,ioos:station:wmo:42044:1,2000-02-12T18:30:00Z,26.1914,-97.0507,-2.0,17.71,11111222 
TABS,ioos:station:wmo:42044:1,2000-02-12T19:00:00Z,26.1914,-97.0507,-2.0,17.85,11111222 
TABS,ioos:station:wmo:42044:1,2000-02-12T19:30:00Z,26.1914,-97.0507,-2.0,17.93,11111222 
TABS,ioos:station:wmo:42044:1,2000-02-12T20:00:00Z,26.1914,-97.0507,-2.0,17.97,11111222 
TABS,ioos:station:wmo:42044:1,2000-02-12T20:30:00Z,26.1914,-97.0507,-2.0,18.09,11111222 
TABS,ioos:station:wmo:42044:1,2000-02-12T21:00:00Z,26.1914,-97.0507,-2.0,18.14,11111222 
TABS,ioos:station:wmo:42044:1,2000-02-12T21:30:00Z,26.1914,-97.0507,-2.0,18.17,11111222 
TABS,ioos:station:wmo:42044:1,2000-02-12T22:00:00Z,26.1914,-97.0507,-2.0,18.22,11111222 
TABS,ioos:station:wmo:42044:1,2000-02-12T22:30:00Z,26.1914,-97.0507,-2.0,18.21,11111222 
TABS,ioos:station:wmo:42044:1,2000-02-12T23:00:00Z,26.1914,-97.0507,-2.0,18.18,11111222 
TABS,ioos:station:wmo:42044:1,2000-02-12T23:30:00Z,26.1914,-97.0507,-2.0,18.12,11111222 
TABS,ioos:station:wmo:42044:1,2000-02-13T00:00:00Z,26.1914,-97.0507,-2.0,18.08,11111222 
TABS,ioos:station:wmo:42044:1,2000-02-13T00:30:00Z,26.1914,-97.0507,-2.0,18.01,11111222 
TABS,ioos:station:wmo:42044:1,2000-02-13T01:00:00Z,26.1914,-97.0507,-2.0,18.06,11111222 
TABS,ioos:station:wmo:42044:1,2000-02-13T01:30:00Z,26.1914,-97.0507,-2.0,18.04,11111222 
TABS,ioos:station:wmo:42044:1,2000-02-13T02:00:00Z,26.1914,-97.0507,-2.0,18.0,11111222 
TABS,ioos:station:wmo:42044:1,2000-02-13T02:30:00Z,26.1914,-97.0507,-2.0,17.95,11111222 
TABS,ioos:station:wmo:42044:1,2000-02-13T03:00:00Z,26.1914,-97.0507,-2.0,17.9,11111222 